^^
Saratoga-Weather Station Historical Data
Daily Summary for January 26, 2020 Units:  English    Metric   Both
Daily Weekly Monthly Yearly Custom
  High: Low: Average:
Temperature: 72.9 °F 42.8 °F 57.2 °F
Dew Point: 45.5 °F 37.2 °F 39.9 °F
Humidity: 82% 30% 56%
Wind Speed: 4.9mph 0mph 0.9mph
Wind Gust: 8mph - -
Wind- - South
Pressure: 29.8 in 29.8 in -
Precipitation: 0 in    
Historical Graphs
 
 
Tabular Data for January 26, 2020
Time Temperature Dew Point Pressure Wind Wind Speed Wind Gust Humidity Rainfall Rate (Hourly) solar
00:04 51.1 °F 39.7 °F 29.8 in NNW 2 mph 2 mph 65% 0 in 0 W/m2
00:09 51.1 °F 39.4 °F 29.8 in Calm   1 mph 64% 0 in 0 W/m2
00:14 50.9 °F 39.6 °F 29.8 in North 0.9 mph 1 mph 65% 0 in 0 W/m2
00:19 50.9 °F 39.2 °F 29.8 in Calm   2 mph 64% 0 in 0 W/m2
00:24 50.9 °F 39.6 °F 29.8 in South 0.9 mph 2 mph 65% 0 in 0 W/m2
00:29 50.7 °F 39.4 °F 29.8 in Calm   1 mph 65% 0 in 0 W/m2
00:34 50.5 °F 39.2 °F 29.8 in ESE 0.9 mph 2 mph 65% 0 in 0 W/m2
00:39 50.5 °F 38.8 °F 29.8 in ESE 0.9 mph 2 mph 64% 0 in 0 W/m2
00:45 50.7 °F 39 °F 29.8 in SSW 2 mph 4 mph 64% 0 in 0 W/m2
00:50 50.7 °F 38.7 °F 29.8 in SE 0.9 mph 2 mph 63% 0 in 0 W/m2
00:55 51.1 °F 38.5 °F 29.8 in North 2 mph 3 mph 62% 0 in 0 W/m2
01:00 51.3 °F 38.7 °F 29.8 in Calm   2 mph 62% 0 in 0 W/m2
01:05 51.3 °F 39 °F 29.8 in Calm   1 mph 63% 0 in 0 W/m2
01:10 51.3 °F 39 °F 29.8 in SW 0.9 mph 1 mph 63% 0 in 0 W/m2
01:15 50.9 °F 38.8 °F 29.8 in NW 0.9 mph 3 mph 63% 0 in 0 W/m2
01:20 50.5 °F 38.8 °F 29.8 in NW 0.9 mph 2 mph 64% 0 in 0 W/m2
01:25 50.4 °F 38.7 °F 29.8 in West 0.9 mph 3 mph 64% 0 in 0 W/m2
01:30 50 °F 38.7 °F 29.8 in Calm   1 mph 65% 0 in 0 W/m2
01:35 49.6 °F 38.7 °F 29.8 in Calm   2 mph 66% 0 in 0 W/m2
01:40 49.5 °F 38.7 °F 29.8 in Calm   1 mph 66% 0 in 0 W/m2
01:45 49.3 °F 38.5 °F 29.8 in West 0.9 mph 2 mph 66% 0 in 0 W/m2
01:50 49.3 °F 38.5 °F 29.8 in Calm   1 mph 66% 0 in 0 W/m2
01:55 48.9 °F 38.5 °F 29.8 in Calm   1 mph 67% 0 in 0 W/m2
02:00 48.7 °F 38.3 °F 29.8 in NW 0.9 mph 1 mph 67% 0 in 0 W/m2
02:05 48.7 °F 38.7 °F 29.8 in West 0.9 mph 2 mph 68% 0 in 0 W/m2
02:10 48.6 °F 38.5 °F 29.8 in West 2 mph 2 mph 68% 0 in 0 W/m2
02:15 48.4 °F 38.3 °F 29.8 in Calm   1 mph 68% 0 in 0 W/m2
02:20 48 °F 37.9 °F 29.8 in Calm   1 mph 68% 0 in 0 W/m2
02:25 47.8 °F 38.1 °F 29.8 in Calm   1 mph 69% 0 in 0 W/m2
02:30 47.8 °F 38.1 °F 29.8 in Calm   1 mph 69% 0 in 0 W/m2
02:35 47.8 °F 38.1 °F 29.8 in Calm   1 mph 69% 0 in 0 W/m2
02:40 47.8 °F 38.1 °F 29.8 in Calm   2 mph 69% 0 in 0 W/m2
02:45 48 °F 37.9 °F 29.8 in WNW 0.9 mph 1 mph 68% 0 in 0 W/m2
02:50 48 °F 37.9 °F 29.8 in Calm   2 mph 68% 0 in 0 W/m2
02:55 48.2 °F 38.1 °F 29.8 in Calm   1 mph 68% 0 in 0 W/m2
03:00 48 °F 37.9 °F 29.8 in Calm   1 mph 68% 0 in 0 W/m2
03:05 47.8 °F 38.1 °F 29.8 in Calm   2 mph 69% 0 in 0 W/m2
03:10 47.8 °F 38.1 °F 29.8 in Calm   1 mph 69% 0 in 0 W/m2
03:15 47.7 °F 38.3 °F 29.8 in West 0.9 mph 2 mph 70% 0 in 0 W/m2
03:20 47.5 °F 38.1 °F 29.8 in SW 2 mph 2 mph 70% 0 in 0 W/m2
03:25 47.5 °F 38.1 °F 29.8 in Calm     70% 0 in 0 W/m2
03:30 47.3 °F 37.9 °F 29.8 in SW 0.9 mph 1 mph 70% 0 in 0 W/m2
03:35 47.1 °F 38.1 °F 29.8 in SSW 0.9 mph 1 mph 71% 0 in 0 W/m2
03:40 47.1 °F 38.1 °F 29.8 in Calm   6 mph 71% 0 in 0 W/m2
03:45 47.3 °F 38.3 °F 29.8 in Calm   2 mph 71% 0 in 0 W/m2
03:50 47.1 °F 38.1 °F 29.8 in WSW 0.9 mph 5 mph 71% 0 in 0 W/m2
03:55 46.9 °F 38.1 °F 29.8 in Calm   1 mph 71% 0 in 0 W/m2
04:00 46.6 °F 38.1 °F 29.8 in WSW 0.9 mph 1 mph 72% 0 in 0 W/m2
04:05 46.2 °F 37.8 °F 29.8 in WSW 2 mph 2 mph 72% 0 in 0 W/m2
04:10 45.9 °F 37.8 °F 29.8 in Calm   2 mph 73% 0 in 0 W/m2
04:15 45.3 °F 37.6 °F 29.8 in WSW 0.9 mph 1 mph 74% 0 in 0 W/m2
04:21 45.1 °F 37.8 °F 29.8 in Calm   1 mph 75% 0 in 0 W/m2
04:26 44.8 °F 37.8 °F 29.8 in Calm   2 mph 76% 0 in 0 W/m2
04:31 44.4 °F 37.4 °F 29.8 in Calm     76% 0 in 0 W/m2
04:36 44.2 °F 37.6 °F 29.8 in Calm   2 mph 77% 0 in 0 W/m2
04:41 44.1 °F 37.6 °F 29.8 in Calm     78% 0 in 0 W/m2
04:46 43.9 °F 37.4 °F 29.8 in Calm     78% 0 in 0 W/m2
04:51 43.9 °F 37.4 °F 29.8 in Calm   1 mph 78% 0 in 0 W/m2
04:56 43.7 °F 37.2 °F 29.8 in WSW 0.9 mph 1 mph 78% 0 in 0 W/m2
05:01 43.5 °F 37.4 °F 29.8 in WSW 0.9 mph 2 mph 79% 0 in 0 W/m2
05:06 43.5 °F 37.4 °F 29.8 in Calm     79% 0 in 0 W/m2
05:11 43.3 °F 37.2 °F 29.8 in Calm   2 mph 79% 0 in 0 W/m2
05:16 43.3 °F 37.6 °F 29.8 in WSW 0.9 mph 1 mph 80% 0 in 0 W/m2
05:21 43.2 °F 37.4 °F 29.8 in WSW 0.9 mph 2 mph 80% 0 in 0 W/m2
05:26 43 °F 37.2 °F 29.8 in Calm   1 mph 80% 0 in 0 W/m2
05:31 43 °F 37.6 °F 29.8 in Calm     81% 0 in 0 W/m2
05:36 43 °F 37.6 °F 29.8 in Calm   1 mph 81% 0 in 0 W/m2
05:41 43 °F 37.6 °F 29.8 in Calm   1 mph 81% 0 in 0 W/m2
05:46 43 °F 37.6 °F 29.8 in Calm   1 mph 81% 0 in 0 W/m2
05:51 42.8 °F 37.8 °F 29.8 in Calm   1 mph 82% 0 in 0 W/m2
05:56 43 °F 37.6 °F 29.8 in Calm     81% 0 in 0 W/m2
06:01 43 °F 37.9 °F 29.8 in Calm     82% 0 in 0 W/m2
06:06 43 °F 37.6 °F 29.8 in Calm     81% 0 in 0 W/m2
06:11 43 °F 37.6 °F 29.8 in WSW 0.9 mph 1 mph 81% 0 in 0 W/m2
06:16 42.8 °F 37.4 °F 29.8 in Calm   2 mph 81% 0 in 0 W/m2
06:21 42.8 °F 37.4 °F 29.8 in Calm     81% 0 in 5 W/m2
06:26 42.8 °F 37.8 °F 29.8 in Calm   1 mph 82% 0 in 7 W/m2
06:31 43 °F 37.9 °F 29.8 in Calm   2 mph 82% 0 in 12 W/m2
06:36 43 °F 37.9 °F 29.8 in Calm     82% 0 in 16 W/m2
06:41 43 °F 37.9 °F 29.8 in Calm   2 mph 82% 0 in 21 W/m2
06:46 43.2 °F 38.1 °F 29.8 in Calm     82% 0 in 25 W/m2
06:51 43.2 °F 37.8 °F 29.8 in Calm     81% 0 in 28 W/m2
06:56 43.2 °F 38.1 °F 29.8 in Calm     82% 0 in 32 W/m2
07:01 43.3 °F 38.3 °F 29.8 in Calm   1 mph 82% 0 in 33 W/m2
07:06 43.3 °F 38.3 °F 29.8 in Calm     82% 0 in 39 W/m2
07:11 43.5 °F 38.5 °F 29.8 in Calm     82% 0 in 39 W/m2
07:16 43.7 °F 38.5 °F 29.8 in Calm   1 mph 82% 0 in 42 W/m2
07:21 43.9 °F 38.7 °F 29.8 in Calm     82% 0 in 44 W/m2
07:26 44.1 °F 38.8 °F 29.8 in Calm     82% 0 in 49 W/m2
07:31 44.2 °F 39 °F 29.8 in Calm     82% 0 in 54 W/m2
07:36 44.4 °F 39.2 °F 29.8 in Calm     82% 0 in 74 W/m2
07:41 44.8 °F 39.4 °F 29.8 in Calm   1 mph 81% 0 in 90 W/m2
07:46 45.1 °F 39 °F 29.8 in Calm     79% 0 in 79 W/m2
07:51 45.7 °F 39.2 °F 29.8 in Calm     78% 0 in 65 W/m2
07:57 46 °F 38.8 °F 29.8 in West 2 mph 2 mph 76% 0 in 144 W/m2
08:01 46.6 °F 38.7 °F 29.8 in WNW 2 mph 3 mph 74% 0 in 185 W/m2
08:06 47.1 °F 39.2 °F 29.8 in WNW 0.9 mph 1 mph 74% 0 in 216 W/m2
08:11 48 °F 39.7 °F 29.8 in ESE 2 mph 3 mph 73% 0 in 227 W/m2
08:16 48.7 °F 39.7 °F 29.8 in Calm   2 mph 71% 0 in 241 W/m2
08:21 48.9 °F 39.6 °F 29.8 in North 0.9 mph 1 mph 70% 0 in 255 W/m2
08:26 49.5 °F 40.1 °F 29.8 in East 2 mph 2 mph 70% 0 in 267 W/m2
08:31 49.8 °F 39.7 °F 29.8 in Calm   2 mph 68% 0 in 283 W/m2
08:36 50.2 °F 40.5 °F 29.8 in East 0.9 mph 2 mph 69% 0 in 292 W/m2
08:42 50.5 °F 40.5 °F 29.8 in East 2 mph 3 mph 68% 0 in 308 W/m2
08:47 50.5 °F 40.5 °F 29.8 in East 0.9 mph 2 mph 68% 0 in 325 W/m2
08:52 50.7 °F 40.1 °F 29.8 in SE 2.9 mph 3 mph 67% 0 in 336 W/m2
08:57 50.5 °F 39.9 °F 29.8 in NE 0.9 mph 2 mph 67% 0 in 348 W/m2
09:02 50.7 °F 40.5 °F 29.8 in ENE 0.9 mph 3 mph 68% 0 in 362 W/m2
09:07 51.1 °F 40.1 °F 29.8 in East 2 mph 3 mph 66% 0 in 378 W/m2
09:12 51.1 °F 40.1 °F 29.8 in East 2.9 mph 4 mph 66% 0 in 388 W/m2
09:17 51.1 °F 40.1 °F 29.8 in NE 2.9 mph 3 mph 66% 0 in 403 W/m2
09:22 51.3 °F 40.3 °F 29.8 in Calm   2 mph 66% 0 in 413 W/m2
09:27 51.8 °F 41.2 °F 29.8 in ESE 2 mph 3 mph 67% 0 in 425 W/m2
09:32 52.3 °F 41 °F 29.8 in Calm   2 mph 65% 0 in 438 W/m2
09:37 52.9 °F 40.6 °F 29.8 in WNW 0.9 mph 2 mph 63% 0 in 450 W/m2
09:42 53.6 °F 41.4 °F 29.8 in East 2 mph 3 mph 63% 0 in 466 W/m2
09:48 54.3 °F 41.2 °F 29.8 in East 2 mph 2 mph 61% 0 in 480 W/m2
09:53 54.9 °F 41.2 °F 29.8 in Calm   2 mph 60% 0 in 480 W/m2
09:58 55.2 °F 41.5 °F 29.8 in ESE 2 mph 4 mph 60% 0 in 69 W/m2
10:03 56.1 °F 41.5 °F 29.8 in ESE 2 mph 4 mph 58% 0 in 510 W/m2
10:08 56.8 °F 41.7 °F 29.8 in ENE 0.9 mph 4 mph 57% 0 in 526 W/m2
10:13 57 °F 41.5 °F 29.8 in Calm   3 mph 56% 0 in 538 W/m2
10:18 56.8 °F 41.4 °F 29.8 in SE 2 mph 3 mph 56% 0 in 550 W/m2
10:23 56.8 °F 41.7 °F 29.8 in North 0.9 mph 2 mph 57% 0 in 555 W/m2
10:28 57.2 °F 41.7 °F 29.8 in North 0.9 mph 3 mph 56% 0 in 570 W/m2
10:33 57.6 °F 41.9 °F 29.8 in ENE 0.9 mph 3 mph 56% 0 in 582 W/m2
10:38 57.9 °F 42.3 °F 29.8 in North 0.9 mph 2 mph 56% 0 in 592 W/m2
10:43 58.3 °F 41.7 °F 29.8 in ENE 0.9 mph 2 mph 54% 0 in 601 W/m2
10:48 58.6 °F 41.5 °F 29.8 in East 2 mph 4 mph 53% 0 in 613 W/m2
10:53 59.4 °F 42.3 °F 29.8 in Calm   4 mph 53% 0 in 619 W/m2
10:58 59.7 °F 42.1 °F 29.8 in East 0.9 mph 2 mph 52% 0 in 635 W/m2
11:03 59.7 °F 42.1 °F 29.8 in SE 2 mph 3 mph 52% 0 in 645 W/m2
11:08 60.1 °F 41.9 °F 29.8 in ENE 0.9 mph 5 mph 51% 0 in 649 W/m2
11:13 59.9 °F 42.3 °F 29.8 in East 4 mph 4 mph 52% 0 in 657 W/m2
11:18 60.4 °F 41.7 °F 29.8 in Calm   4 mph 50% 0 in 668 W/m2
11:23 61 °F 42.3 °F 29.8 in Calm   1 mph 50% 0 in 675 W/m2
11:28 61.3 °F 41.5 °F 29.8 in North 0.9 mph 2 mph 48% 0 in 684 W/m2
11:33 61.9 °F 43 °F 29.8 in Calm   3 mph 50% 0 in 689 W/m2
11:38 62.1 °F 42.6 °F 29.8 in SSE 0.9 mph 2 mph 49% 0 in 701 W/m2
11:44 62.6 °F 41.5 °F 29.8 in SE 2 mph 4 mph 46% 0 in 707 W/m2
11:49 62.8 °F 40.5 °F 29.8 in Calm   2 mph 44% 0 in 717 W/m2
11:54 63 °F 41.4 °F 29.8 in ENE 2 mph 4 mph 45% 0 in 717 W/m2
11:59 63.3 °F 41 °F 29.8 in ENE 2.9 mph 4 mph 44% 0 in 728 W/m2
12:04 63.9 °F 39.7 °F 29.8 in East 4.9 mph 8 mph 41% 0 in 733 W/m2
12:09 64 °F 41.2 °F 29.8 in ENE 4 mph 4 mph 43% 0 in 742 W/m2
12:14 64.6 °F 40.3 °F 29.8 in East 2 mph 3 mph 41% 0 in 745 W/m2
12:19 65.1 °F 39.6 °F 29.8 in NE 2 mph 5 mph 39% 0 in 747 W/m2
12:24 65.3 °F 40.3 °F 29.8 in SE 0.9 mph 4 mph 40% 0 in 749 W/m2
12:29 65.1 °F 39.6 °F 29.8 in ESE 2 mph 3 mph 39% 0 in 758 W/m2
12:34 65.7 °F 40.6 °F 29.8 in SE 0.9 mph 4 mph 40% 0 in 761 W/m2
12:39 65.8 °F 39.6 °F 29.8 in North 2 mph 2 mph 38% 0 in 765 W/m2
12:44 65.8 °F 40.1 °F 29.8 in West 2 mph 3 mph 39% 0 in 766 W/m2
12:49 65.5 °F 39.2 °F 29.8 in WNW 0.9 mph 4 mph 38% 0 in 768 W/m2
12:54 65.1 °F 38.8 °F 29.8 in Calm   4 mph 38% 0 in 768 W/m2
12:59 65.1 °F 39.6 °F 29.8 in Calm   1 mph 39% 0 in 773 W/m2
13:04 65.7 °F 41.4 °F 29.8 in ENE 2.9 mph 4 mph 41% 0 in 777 W/m2
13:09 66.2 °F 40.5 °F 29.8 in SW 0.9 mph 2 mph 39% 0 in 777 W/m2
13:14 66.6 °F 40.1 °F 29.8 in NNE 2 mph 2 mph 38% 0 in 782 W/m2
13:19 66.7 °F 40.3 °F 29.8 in East 2.9 mph 8 mph 38% 0 in 782 W/m2
13:24 66.4 °F 39.4 °F 29.8 in NW 2.9 mph 4 mph 37% 0 in 779 W/m2
13:29 66.2 °F 39.2 °F 29.8 in Calm   7 mph 37% 0 in 780 W/m2
13:34 66.4 °F 39.4 °F 29.8 in ENE 2 mph 7 mph 37% 0 in 777 W/m2
13:39 66.4 °F 39.9 °F 29.8 in NE 4 mph 6 mph 38% 0 in 780 W/m2
13:44 66.4 °F 39.4 °F 29.8 in WNW 0.9 mph 3 mph 37% 0 in 775 W/m2
13:49 66.6 °F 39.6 °F 29.8 in ENE 4 mph 6 mph 37% 0 in 773 W/m2
13:54 66.7 °F 41 °F 29.8 in East 2.9 mph 3 mph 39% 0 in 770 W/m2
13:59 66.9 °F 39 °F 29.8 in ENE 2.9 mph 8 mph 36% 0 in 772 W/m2
14:04 66.7 °F 38.3 °F 29.8 in West 2 mph 3 mph 35% 0 in 765 W/m2
14:09 66.7 °F 39.6 °F 29.8 in WNW 0.9 mph 5 mph 37% 0 in 763 W/m2
14:14 67.1 °F 38.5 °F 29.8 in West 2.9 mph 6 mph 35% 0 in 761 W/m2
14:19 66.6 °F 38.8 °F 29.8 in NNW 2 mph 4 mph 36% 0 in 759 W/m2
14:24 66.9 °F 39 °F 29.8 in NNW 2.9 mph 4 mph 36% 0 in 756 W/m2
14:29 66.9 °F 39 °F 29.8 in NNW 0.9 mph 3 mph 36% 0 in 752 W/m2
14:34 67.3 °F 40.1 °F 29.8 in NNW 2 mph 5 mph 37% 0 in 751 W/m2
14:39 67.6 °F 40.5 °F 29.8 in ESE 2 mph 4 mph 37% 0 in 745 W/m2
14:44 67.8 °F 40.6 °F 29.8 in SE 0.9 mph 2 mph 37% 0 in 742 W/m2
14:49 68.4 °F 40.3 °F 29.8 in Calm   2 mph 36% 0 in 733 W/m2
14:54 69.1 °F 39.6 °F 29.8 in Calm   1 mph 34% 0 in 733 W/m2
14:59 69.3 °F 39.7 °F 29.8 in West 4 mph 4 mph 34% 0 in 733 W/m2
15:04 68.9 °F 40.1 °F 29.8 in West 2.9 mph 7 mph 35% 0 in 728 W/m2
15:09 68.2 °F 39.6 °F 29.8 in WSW 2.9 mph 8 mph 35% 0 in 726 W/m2
15:14 67.6 °F 40.5 °F 29.8 in West 0.9 mph 3 mph 37% 0 in 708 W/m2
15:19 68 °F 39.4 °F 29.8 in Calm   2 mph 35% 0 in 698 W/m2
15:24 68.5 °F 41.2 °F 29.8 in NE 4 mph 4 mph 37% 0 in 687 W/m2
15:29 69.3 °F 39.7 °F 29.8 in South 4 mph 4 mph 34% 0 in 684 W/m2
15:34 69.4 °F 40.6 °F 29.8 in North 0.9 mph 7 mph 35% 0 in 679 W/m2
15:39 69.6 °F 41.5 °F 29.8 in East 2 mph 4 mph 36% 0 in 671 W/m2
15:44 69.6 °F 41.5 °F 29.8 in ESE 2 mph 7 mph 36% 0 in 664 W/m2
15:50 69.8 °F 40.1 °F 29.8 in SW 2 mph 4 mph 34% 0 in 664 W/m2
15:55 69.8 °F 40.1 °F 29.8 in NNE 0.9 mph 1 mph 34% 0 in 645 W/m2
16:00 70.2 °F 41.2 °F 29.8 in SSW 0.9 mph 2 mph 35% 0 in 636 W/m2
16:05 70.5 °F 42.3 °F 29.8 in Calm   3 mph 36% 0 in 629 W/m2
16:10 70.7 °F 40.1 °F 29.8 in WSW 2 mph 8 mph 33% 0 in 622 W/m2
16:15 70.3 °F 39 °F 29.8 in NNW 0.9 mph 2 mph 32% 0 in 610 W/m2
16:20 70.2 °F 39.7 °F 29.8 in Calm   2 mph 33% 0 in 601 W/m2
16:25 70.5 °F 39.2 °F 29.8 in ESE 0.9 mph 2 mph 32% 0 in 592 W/m2
16:30 71.1 °F 39.7 °F 29.8 in Calm   4 mph 32% 0 in 582 W/m2
16:35 71.1 °F 40.5 °F 29.8 in NW 2.9 mph 3 mph 33% 0 in 571 W/m2
16:40 71.2 °F 39.9 °F 29.8 in North 4 mph 4 mph 32% 0 in 561 W/m2
16:45 71.1 °F 38.1 °F 29.8 in NNW 2 mph 3 mph 30% 0 in 554 W/m2
16:50 70.9 °F 38.7 °F 29.8 in ENE 2 mph 4 mph 31% 0 in 536 W/m2
16:55 70.9 °F 38.7 °F 29.8 in ENE 4 mph 5 mph 31% 0 in 526 W/m2
17:00 70.7 °F 38.7 °F 29.8 in ENE 0.9 mph 2 mph 31% 0 in 513 W/m2
17:05 70.7 °F 40.1 °F 29.8 in Calm   3 mph 33% 0 in 504 W/m2
17:10 71.4 °F 41.5 °F 29.8 in NNE 2 mph 3 mph 34% 0 in 490 W/m2
17:15 72 °F 40.5 °F 29.8 in East 2.9 mph 5 mph 32% 0 in 483 W/m2
17:20 72.3 °F 41.5 °F 29.8 in WNW 2 mph 2 mph 33% 0 in 473 W/m2
17:25 72.9 °F 40.5 °F 29.8 in NNW 0.9 mph 5 mph 31% 0 in 457 W/m2
17:30 72.9 °F 40.5 °F 29.8 in West 0.9 mph 2 mph 31% 0 in 443 W/m2
17:35 72.7 °F 40.3 °F 29.8 in NW 2 mph 5 mph 31% 0 in 429 W/m2
17:40 72.5 °F 39.4 °F 29.8 in WSW 2 mph 6 mph 30% 0 in 417 W/m2
17:45 72.1 °F 39 °F 29.8 in NW 2 mph 3 mph 30% 0 in 404 W/m2
17:50 72 °F 38.8 °F 29.8 in WNW 4 mph 6 mph 30% 0 in 390 W/m2
17:55 71.6 °F 39.4 °F 29.8 in NNW 2 mph 2 mph 31% 0 in 380 W/m2
18:00 72 °F 38.8 °F 29.8 in NW 0.9 mph 5 mph 30% 0 in 364 W/m2
18:05 72 °F 38.8 °F 29.8 in WNW 2 mph 3 mph 30% 0 in 353 W/m2
18:10 72 °F 38.8 °F 29.8 in NW 0.9 mph 2 mph 30% 0 in 339 W/m2
18:15 72 °F 38.8 °F 29.8 in NW 2 mph 4 mph 30% 0 in 327 W/m2
18:20 72 °F 38.8 °F 29.8 in West 2.9 mph 4 mph 30% 0 in 313 W/m2
18:25 71.4 °F 38.3 °F 29.8 in ENE 0.9 mph 3 mph 30% 0 in 302 W/m2
18:30 71.2 °F 39 °F 29.8 in Calm   2 mph 31% 0 in 287 W/m2
18:35 71.6 °F 39.4 °F 29.8 in ESE 2 mph 3 mph 31% 0 in 274 W/m2
18:40 71.2 °F 39.9 °F 29.8 in NNW 0.9 mph 3 mph 32% 0 in 260 W/m2
18:45 71.2 °F 41.4 °F 29.8 in ENE 2 mph 4 mph 34% 0 in 246 W/m2
18:50 71.1 °F 40.5 °F 29.8 in SE 2 mph 3 mph 33% 0 in 234 W/m2
18:55 71.1 °F 42.1 °F 29.8 in South 0.9 mph 2 mph 35% 0 in 216 W/m2
19:00 70.9 °F 41.2 °F 29.8 in Calm   3 mph 34% 0 in 202 W/m2
19:05 70.7 °F 41.7 °F 29.8 in Calm   1 mph 35% 0 in 188 W/m2
19:10 70.3 °F 40.6 °F 29.8 in ESE 2 mph 4 mph 34% 0 in 171 W/m2
19:16 70.2 °F 41.9 °F 29.8 in NE 2.9 mph 3 mph 36% 0 in 155 W/m2
19:21 69.6 °F 41.5 °F 29.8 in East 0.9 mph 4 mph 36% 0 in 139 W/m2
19:26 69.6 °F 43.5 °F 29.8 in ENE 0.9 mph 2 mph 39% 0 in 125 W/m2
19:31 69.4 °F 45.3 °F 29.8 in East 0.9 mph 3 mph 42% 0 in 109 W/m2
19:36 69.1 °F 43.2 °F 29.8 in ESE 0.9 mph 2 mph 39% 0 in 98 W/m2
19:41 68.9 °F 45.5 °F 29.8 in ESE 0.9 mph 1 mph 43% 0 in 86 W/m2
19:46 68.5 °F 45.1 °F 29.8 in Calm     43% 0 in 72 W/m2
19:51 68.2 °F 45.5 °F 29.8 in Calm     44% 0 in 62 W/m2
19:56 67.8 °F 45.1 °F 29.8 in Calm     44% 0 in 54 W/m2
20:01 67.8 °F 44.4 °F 29.8 in Calm     43% 0 in 46 W/m2
20:06 67.6 °F 45 °F 29.8 in Calm   1 mph 44% 0 in 26 W/m2
20:11 67.1 °F 44.4 °F 29.8 in Calm     44% 0 in 23 W/m2
20:16 66.2 °F 44.2 °F 29.8 in ESE 1 mph 1 mph 45% 0 in 21 W/m2
20:21 65.1 °F 43.9 °F 29.8 in ESE 0.9 mph 1 mph 46% 0 in 18 W/m2
20:26 64.4 °F 43.7 °F 29.8 in ESE 0.9 mph 1 mph 47% 0 in 14 W/m2
20:31 63.7 °F 42.4 °F 29.8 in ESE 0.9 mph 1 mph 46% 0 in 12 W/m2
20:36 63 °F 42.4 °F 29.8 in Calm   1 mph 47% 0 in 9 W/m2
20:41 62.2 °F 42.8 °F 29.8 in ESE 0.9 mph 2 mph 49% 0 in 7 W/m2
20:46 61.7 °F 42.3 °F 29.8 in Calm   1 mph 49% 0 in 5 W/m2
20:51 61.2 °F 42.4 °F 29.8 in ESE 0.9 mph 1 mph 50% 0 in 0 W/m2
20:56 60.4 °F 42.3 °F 29.8 in ESE 0.9 mph 2 mph 51% 0 in 0 W/m2
21:01 60.1 °F 41.9 °F 29.8 in ESE 0.9 mph 1 mph 51% 0 in 0 W/m2
21:06 59.5 °F 41.9 °F 29.8 in ESE 0.9 mph 2 mph 52% 0 in 0 W/m2
21:11 59.2 °F 42.1 °F 29.8 in ESE 0.9 mph 2 mph 53% 0 in 0 W/m2
21:16 58.6 °F 41.5 °F 29.8 in Calm     53% 0 in 0 W/m2
21:21 58.3 °F 41.7 °F 29.8 in Calm     54% 0 in 0 W/m2
21:26 57.7 °F 41.2 °F 29.8 in Calm     54% 0 in 0 W/m2
21:31 57.6 °F 41.5 °F 29.8 in Calm     55% 0 in 0 W/m2
21:36 57 °F 41.5 °F 29.8 in Calm     56% 0 in 0 W/m2
21:41 56.8 °F 41.7 °F 29.8 in Calm     57% 0 in 0 W/m2
21:46 56.5 °F 41.4 °F 29.8 in Calm     57% 0 in 0 W/m2
21:51 56.1 °F 41.5 °F 29.8 in Calm     58% 0 in 0 W/m2
21:56 55.8 °F 41.2 °F 29.8 in Calm     58% 0 in 0 W/m2
22:01 55.6 °F 41.5 °F 29.8 in Calm     59% 0 in 0 W/m2
22:06 55.2 °F 41.2 °F 29.8 in Calm     59% 0 in 0 W/m2
22:11 55 °F 41.4 °F 29.8 in Calm     60% 0 in 0 W/m2
22:16 54.7 °F 41 °F 29.8 in Calm     60% 0 in 0 W/m2
22:21 54.3 °F 41.2 °F 29.8 in Calm     61% 0 in 0 W/m2
22:26 54.1 °F 41 °F 29.8 in Calm     61% 0 in 0 W/m2
22:31 54 °F 40.8 °F 29.8 in Calm     61% 0 in 0 W/m2
22:36 54 °F 40.8 °F 29.8 in Calm     61% 0 in 0 W/m2
22:41 53.8 °F 41 °F 29.8 in Calm   1 mph 62% 0 in 0 W/m2
22:46 53.6 °F 40.8 °F 29.8 in Calm     62% 0 in 0 W/m2
22:51 53.4 °F 40.6 °F 29.8 in WNW 2 mph 4 mph 62% 0 in 0 W/m2
22:56 53.8 °F 40.6 °F 29.8 in West 0.9 mph 1 mph 61% 0 in 0 W/m2
23:01 54.1 °F 40.6 °F 29.8 in West 0.9 mph 4 mph 60% 0 in 0 W/m2
23:06 54.7 °F 41 °F 29.8 in Calm   1 mph 60% 0 in 0 W/m2
23:11 54.9 °F 41.2 °F 29.8 in SW 0.9 mph 1 mph 60% 0 in 0 W/m2
23:16 54.9 °F 41.2 °F 29.8 in Calm   1 mph 60% 0 in 0 W/m2
23:21 54.9 °F 41.2 °F 29.8 in Calm   2 mph 60% 0 in 0 W/m2
23:26 54.7 °F 41.5 °F 29.8 in WNW 2 mph 3 mph 61% 0 in 0 W/m2
23:31 54.3 °F 41.2 °F 29.8 in WNW 2 mph 2 mph 61% 0 in 0 W/m2
23:36 54.1 °F 41.4 °F 29.8 in Calm   3 mph 62% 0 in 0 W/m2
23:41 53.8 °F 41 °F 29.8 in WNW 0.9 mph 1 mph 62% 0 in 0 W/m2
23:47 53.6 °F 41.4 °F 29.8 in Calm   2 mph 63% 0 in 0 W/m2
23:52 53.2 °F 41.4 °F 29.8 in Calm     64% 0 in 0 W/m2
23:57 53.1 °F 41.2 °F 29.8 in Calm     64% 0 in 0 W/m2
Juneau County Weather
Compliments of Weather Underground - 4 mb